Stations météo

réclame
Mon MeteoGroup
Woensdrecht, Pays-Bas (6340): Température de l'air & dewpoint: 09.12.2019 15:00:00 - 15.12.2019 15:00:00 (CET)Woensdrecht, Pays-Bas (6340): Température de l'air 5cm: 09.12.2019 15:00:00 - 15.12.2019 15:00:00 (CET)Woensdrecht, Pays-Bas (6340): Vitesse du vent & gusts: 09.12.2019 15:00:00 - 15.12.2019 15:00:00 (CET)Woensdrecht, Pays-Bas (6340): Direction du vent: 09.12.2019 15:00:00 - 15.12.2019 15:00:00 (CET)Woensdrecht, Pays-Bas (6340): reduced air pressure: 09.12.2019 15:00:00 - 15.12.2019 15:00:00 (CET)Woensdrecht, Pays-Bas (6340): visibility: 09.12.2019 15:00:00 - 15.12.2019 15:00:00 (CET)Woensdrecht, Pays-Bas (6340): Quantités de précipitations: 09.12.2019 15:00:00 - 15.12.2019 15:00:00 (CET)
Date & Time tt [°C] td [°C] tt 5cm [°C] ff [km/h] ff [knt] fx [km/h] fx [knt] dd ppp [hPa] vv [km] rr [mm]
15.12.2019 15:00:00 8,9 3,8 8,6 22 12 47 25 SW 1001,1 10 0,0
15.12.2019 14:00:00 9,0 4,0 8,8 26 14 58 31 SW 1000,7 10 0,0
15.12.2019 13:00:00 9,4 4,3 9,2 28 15 50 27 SW 999,9 10 0,0
15.12.2019 12:00:00 8,5 4,5 8,8 22 12 40 21 SW 999,3 10 0,0
15.12.2019 11:00:00 7,8 3,3 7,5 22 12 40 21 SW 998,6 10 0,0
15.12.2019 10:00:00 7,1 1,0 6,0 21 11 43 23 SW 997,7 10 0,0
15.12.2019 09:00:00 6,8 1,1 5,6 24 13 43 23 WSW 996,6 10 0,0
15.12.2019 08:00:00 7,4 3,0 6,4 31 17 47 25 WSW 995,1 10 0,0
15.12.2019 07:00:00 8,3 4,5 7,5 24 13 47 25 SW 993,2 10 0,0
15.12.2019 06:00:00 8,4 5,3 7,8 37 20 58 31 WSW 991,6 10 0,0
15.12.2019 05:00:00 8,9 6,2 8,4 34 18 54 29 SW 990,4 10 0,7
15.12.2019 04:00:00 8,6 7,2 8,1 18 10 40 21 SSW 990,0 7 0,6
15.12.2019 03:00:00 7,9 5,9 7,7 21 11 40 21 SSW 991,2 10 0,0
15.12.2019 02:00:00 8,2 4,0 7,7 22 12 43 23 S 992,1 10 0,0
15.12.2019 01:00:00 6,9 3,1 6,0 13 7 29 16 S 993,6 10 0,0
15.12.2019 00:00:00 6,9 3,0 5,8 13 7 32 18 S 995,1 10 0,0
14.12.2019 23:00:00 7,0 3,0 5,7 13 7 29 16 S 996,3 10 0,0
14.12.2019 22:00:00 5,4 1,6 4,4 9 5 25 14 SSE 997,1 10 0,0
14.12.2019 21:00:00 6,3 1,0 5,0 15 8 29 16 SSW 997,9 10 0,0
14.12.2019 20:00:00 5,9 1,2 4,6 18 10 32 18 SW 997,7 10 0,0
14.12.2019 19:00:00 5,9 0,9 4,6 18 10 54 29 SW 997,1 10 0,0
14.12.2019 18:00:00 6,9 -0,2 5,6 37 20 61 33 W 995,9 10 0,0
14.12.2019 17:00:00 6,6 1,0 5,7 46 25 72 39 W 994,5 10 0,0
14.12.2019 16:00:00 7,2 1,1 6,5 48 26 79 43 W 992,5 10 0,0
14.12.2019 15:00:00 7,5 4,1 6,9 31 17 54 29 SW 990,8 10 0,0
14.12.2019 14:00:00 7,2 4,1 6,9 28 15 50 27 SW 991,0 10 0,1
14.12.2019 13:00:00 7,3 2,9 7,2 21 11 40 21 SW 991,7 10 0,0
14.12.2019 12:00:00 7,5 2,8 7,0 29 16 47 25 WSW 991,3 10 0,0
14.12.2019 11:00:00 7,1 2,7 6,9 35 19 58 31 W 991,1 10 0,0
14.12.2019 10:00:00 6,6 3,1 6,1 37 20 68 37 W 989,8 10 0,6
14.12.2019 09:00:00 6,0 4,1 5,5 34 18 47 25 WSW 988,0 10 0,2
14.12.2019 08:00:00 5,5 4,3 5,1 28 15 43 23 WSW 987,0 10 0,5
14.12.2019 07:00:00 5,4 3,6 4,2 21 11 32 18 WSW 985,6 10 0,0
14.12.2019 06:00:00 5,3 4,0 5,0 21 11 29 16 W 984,2 10 0,1
14.12.2019 05:00:00 5,3 4,7 5,1 11 6 18 10 W 982,3 8 1,4
14.12.2019 04:00:00 5,3 4,6 5,2 4 2 18 10 SSE 980,8 4,3 1,2
14.12.2019 03:00:00 5,5 4,6 5,4 11 6 25 14 SSW 981,2 10 0,8
14.12.2019 02:00:00 6,2 3,5 5,8 16 9 32 18 SSW 981,9 10 0,0
14.12.2019 01:00:00 6,0 2,7 5,5 16 9 32 18 SSW 982,7 10 0,0
14.12.2019 00:00:00 6,2 2,6 5,5 22 12 36 19 SW 983,8 10 0,0
13.12.2019 23:00:00 6,1 2,5 5,4 21 11 36 19 SW 983,6 10 0,0
13.12.2019 22:00:00 6,6 2,8 6,1 18 10 32 18 SW 984,5 10 0,0
13.12.2019 21:00:00 6,8 3,2 6,1 16 9 29 16 SW 984,9 10 0,0
13.12.2019 20:00:00 6,3 4,5 6,0 16 9 32 18 SW 985,1 10 0,1
13.12.2019 19:00:00 6,4 4,8 6,2 34 18 50 27 WSW 984,9 9 0,4
13.12.2019 18:00:00 7,4 3,8 6,9 22 12 32 18 W 984,0 10 0,0
13.12.2019 17:00:00 7,3 4,5 6,8 22 12 32 18 W 983,3 10 0,0
13.12.2019 16:00:00 7,3 5,2 7,0 22 12 36 19 W 982,0 10 0,0
13.12.2019 15:00:00 7,1 5,6 7,0 21 11 32 18 WNW 980,2 10 0,2
13.12.2019 14:00:00 5,7 5,4 5,7 15 8 25 14 WNW 978,8 10 1,3
13.12.2019 13:00:00 5,3 4,6 5,5 15 8 22 12 WNW 977,2 8 0,2
13.12.2019 12:00:00 5,4 4,9 5,8 11 6 22 12 NNW 975,5 6 0,2
13.12.2019 11:00:00 5,6 5,2 5,7 9 5 14 8 WNW 973,7 5 0,1
13.12.2019 10:00:00 4,5 4,3 3,8 4 2 7 4 - 972,3 3,0 0,0
13.12.2019 09:00:00 4,9 4,6 4,9 4 2 11 6 - 971,2 6 0,2
13.12.2019 08:00:00 4,7 4,4 4,7 11 6 18 10 E 970,6 10 0,3
13.12.2019 07:00:00 4,4 3,9 4,3 11 6 18 10 E 970,6 6 2,1
13.12.2019 06:00:00 4,2 3,6 4,2 11 6 22 12 ESE 971,3 10 1,1
13.12.2019 05:00:00 4,1 3,5 4,1 9 5 22 12 SE 972,6 9 0,5
13.12.2019 04:00:00 4,2 2,9 4,1 13 7 29 16 SSE 974,1 10 0,0
13.12.2019 03:00:00 4,1 2,6 4,0 13 7 32 18 SSE 975,4 10 0,0
13.12.2019 02:00:00 4,1 2,7 4,0 16 9 32 18 S 976,6 10 0,0
13.12.2019 01:00:00 4,3 2,7 4,2 18 10 43 23 S 978,3 10 0,0
13.12.2019 00:00:00 4,3 3,0 4,2 22 12 50 27 S 980,0 10 1,5
12.12.2019 23:00:00 4,7 3,3 4,6 21 11 43 23 S 981,4 10 1,4
12.12.2019 22:00:00 5,1 2,8 4,8 18 10 40 21 SSE 982,9 10 0,1
12.12.2019 21:00:00 5,5 2,1 5,1 16 9 43 23 SSE 984,8 10 0,0
12.12.2019 20:00:00 5,0 2,0 4,6 21 11 40 21 SSE 986,7 10 0,1
12.12.2019 19:00:00 4,8 1,8 4,5 18 10 40 21 S 988,4 10 0,0
12.12.2019 18:00:00 4,9 1,2 4,6 21 11 43 23 SSE 989,8 10 0,0
12.12.2019 17:00:00 5,0 1,1 4,7 15 8 40 21 SSE 991,6 10 0,0
12.12.2019 16:00:00 5,2 1,0 4,9 18 10 40 21 S 992,9 10 0,0
12.12.2019 15:00:00 5,8 1,3 5,7 16 9 36 19 S 994,8 10 0,0
12.12.2019 14:00:00 5,8 1,9 5,7 16 9 40 21 S 996,2 10 0,0
12.12.2019 13:00:00 5,8 2,3 6,4 15 8 36 19 S 997,8 10 0,0
12.12.2019 12:00:00 4,8 1,9 5,3 15 8 29 16 S 999,3 10 0,0
12.12.2019 11:00:00 4,1 2,0 4,5 11 6 22 12 S 1000,6 10 0,0
12.12.2019 10:00:00 3,8 2,0 3,0 11 6 22 12 SSW 1001,4 10 0,0
12.12.2019 09:00:00 2,6 1,6 1,5 11 6 22 12 SSW 1001,6 10 0,0
12.12.2019 08:00:00 2,4 1,6 1,4 13 7 22 12 SW 1001,9 10 0,0
12.12.2019 07:00:00 2,9 2,1 2,1 13 7 22 12 SW 1002,1 10 0,0
12.12.2019 06:00:00 3,4 2,6 2,8 15 8 22 12 SW 1002,1 10 0,0
12.12.2019 05:00:00 3,5 2,5 2,5 13 7 22 12 SW 1002,2 10 0,0
12.12.2019 04:00:00 4,0 3,0 3,4 11 6 22 12 SW 1002,3 10 0,0
12.12.2019 03:00:00 4,1 2,9 3,4 15 8 22 12 SW 1002,1 10 0,0
12.12.2019 02:00:00 4,6 3,2 3,9 16 9 25 14 SW 1002,0 10 0,0
12.12.2019 01:00:00 5,4 3,8 5,0 16 9 29 16 SW 1002,2 10 0,0
12.12.2019 00:00:00 5,6 3,8 4,9 15 8 32 18 SW 1002,4 10 0,0
11.12.2019 23:00:00 6,0 4,2 5,5 22 12 36 19 SW 1002,8 10 0,0
11.12.2019 22:00:00 6,5 4,2 6,1 15 8 29 16 SSW 1003,2 10 0,0
11.12.2019 21:00:00 6,2 4,3 5,4 13 7 25 14 SSW 1003,6 10 0,0
11.12.2019 20:00:00 6,7 4,9 5,9 11 6 25 14 SSW 1003,6 10 0,0
11.12.2019 19:00:00 6,6 4,8 5,8 11 6 22 12 SSW 1004,0 10 0,0
11.12.2019 18:00:00 6,6 4,7 5,7 9 5 18 10 SSW 1004,3 10 0,0
11.12.2019 17:00:00 6,5 4,8 5,7 9 5 18 10 SSW 1004,4 10 0,0
11.12.2019 16:00:00 6,8 4,8 6,1 9 5 18 10 SSW 1004,9 10 0,0
11.12.2019 15:00:00 7,1 4,9 6,8 9 5 22 12 SSW 1005,2 10 0,0
11.12.2019 14:00:00 7,4 5,2 7,6 9 5 18 10 SSW 1005,5 10 0,0
11.12.2019 13:00:00 7,2 5,6 7,4 9 5 25 14 SSW 1006,4 10 0,0
11.12.2019 12:00:00 6,8 5,8 6,8 13 7 29 16 SSW 1007,3 10 0,0
11.12.2019 11:00:00 6,7 5,5 6,8 15 8 29 16 SSW 1008,1 10 0,0
11.12.2019 10:00:00 6,7 5,6 6,5 9 5 25 14 SSW 1008,3 10 0,0
11.12.2019 09:00:00 6,6 5,7 6,3 11 6 29 16 SSW 1008,3 10 0,0
11.12.2019 08:00:00 6,8 5,8 6,6 16 9 29 16 SW 1008,4 10 0,0
11.12.2019 07:00:00 6,9 6,2 6,7 11 6 29 16 SSW 1008,8 10 0,0
11.12.2019 06:00:00 6,9 6,2 6,6 11 6 29 16 SSW 1008,8 10 0,1
11.12.2019 05:00:00 7,0 6,2 6,8 13 7 36 19 SSW 1009,0 10 0,2
11.12.2019 04:00:00 6,9 6,0 6,7 16 9 40 21 SSW 1009,2 10 0,5
11.12.2019 03:00:00 6,8 5,5 6,6 24 13 50 27 SSW 1009,5 9 0,7
11.12.2019 02:00:00 7,5 4,4 7,3 26 14 54 29 SSW 1009,4 10 0,0
11.12.2019 01:00:00 7,7 4,1 7,5 29 16 54 29 SSW 1009,8 10 0,0
11.12.2019 00:00:00 7,7 3,3 7,4 22 12 43 23 SSW 1010,1 10 0,0
10.12.2019 23:00:00 7,4 3,0 7,1 26 14 47 25 S 1010,5 10 0,0
10.12.2019 22:00:00 7,1 2,6 6,8 24 13 50 27 S 1011,1 10 0,0
10.12.2019 21:00:00 7,0 2,2 6,8 24 13 54 29 S 1012,0 10 0,0
10.12.2019 20:00:00 6,7 1,9 6,4 24 13 58 31 S 1012,9 10 0,0
10.12.2019 19:00:00 6,8 1,6 6,2 26 14 54 29 S 1013,9 10 0,0
10.12.2019 18:00:00 6,2 1,6 5,6 22 12 47 25 S 1015,5 10 0,0
10.12.2019 17:00:00 6,3 1,2 5,9 22 12 36 19 S 1016,8 10 0,0
10.12.2019 16:00:00 6,3 1,2 5,8 18 10 47 25 SSW 1018,0 10 0,0
10.12.2019 15:00:00 6,3 0,9 6,0 21 11 40 21 S 1019,1 10 0,0
10.12.2019 14:00:00 6,4 1,3 6,3 18 10 47 25 SSW 1020,5 10 0,0
10.12.2019 13:00:00 6,5 0,9 6,3 21 11 43 23 SSW 1021,6 10 0,0
10.12.2019 12:00:00 5,8 0,1 5,9 18 10 36 19 SSW 1023,1 10 0,0
10.12.2019 11:00:00 4,9 0,4 4,9 16 9 32 18 SSW 1024,2 10 0,0
10.12.2019 10:00:00 3,3 0,4 2,5 11 6 22 12 S 1024,7 10 0,0
10.12.2019 09:00:00 2,6 0,3 1,4 9 5 18 10 SW 1025,1 10 0,0
10.12.2019 08:00:00 2,3 0,4 0,9 11 6 18 10 SW 1024,9 10 0,0
10.12.2019 07:00:00 2,6 1,1 1,3 9 5 18 10 SW 1025,0 10 0,0
10.12.2019 06:00:00 2,9 1,5 0,9 8 4 14 8 SW 1024,8 10 0,0
10.12.2019 05:00:00 2,8 2,0 1,6 5 3 18 10 WSW 1025,0 10 0,0
10.12.2019 04:00:00 2,0 1,1 -0,5 5 3 11 6 SW 1024,7 10 0,0
10.12.2019 03:00:00 3,6 1,3 1,6 9 5 22 12 W 1024,3 10 0,0
10.12.2019 02:00:00 4,3 1,4 3,6 8 4 25 14 WNW 1023,7 10 0,0
10.12.2019 01:00:00 5,4 0,6 4,0 13 7 22 12 WNW 1022,8 10 0,0
10.12.2019 00:00:00 5,4 1,3 4,1 15 8 22 12 WNW 1022,4 10 0,0
09.12.2019 23:00:00 5,9 0,8 4,8 13 7 25 14 NW 1021,1 10 0,0
09.12.2019 22:00:00 5,2 1,9 3,5 9 5 25 14 NW 1020,4 10 0,0
09.12.2019 21:00:00 6,2 1,3 5,1 15 8 29 16 NW 1018,9 10 0,0
09.12.2019 20:00:00 6,2 1,8 5,2 16 9 54 29 NW 1017,3 10 0,1
09.12.2019 19:00:00 6,9 1,9 5,7 16 9 40 21 NW 1015,4 10 0,1
09.12.2019 18:00:00 6,6 2,3 5,3 11 6 47 25 NNW 1013,4 10 0,0
09.12.2019 17:00:00 7,4 2,9 6,6 22 12 47 25 NNW 1010,9 10 0,2
09.12.2019 16:00:00 6,9 4,1 6,3 24 13 50 27 NNW 1007,9 10 0,5
09.12.2019 15:00:00 7,2 5,2 6,9 26 14 68 37 NNW 1004,8 10 0,9

tt = Température de l'air
td = dewpoint
tt 5cm = Température de l'air 5cm
ff = Vitesse du vent
fx = gusts
dd = Direction du vent
ppp = reduced air pressure
vv = visibility
rr = Quantités de précipitations

stations d'obs. à proximité